INTELSAT 905 (IS-905)

Last updated on Thu Nov 21 2024 00:02:40 GMT+0000 (Coordinated Universal Time)

1 27438U 02027A 24325.61955524 -.00000183 00000+0 00000+0 0 9999 2 27438 5.3034 76.6470 0002869 169.0075 13.0225 1.00271355 45617
UTC large
Height (km)
Speed (km/s)
/
Latitude / Longitude
Inclination (degrees)
Orbital Period (minutes)
Azimuth
Elevation
Range (km)
Doppler Factor

Next 0 passes for location: London (51.5072 / 0.1276)

Sorry there are no passes over London.